OBJECT G, 44316

Orbit data source: Space-Track

You're viewing an Uncataloged Satellite

Recently launched and/or uncataloged satellites may have evolving metadata. Metadata may include but not limited to: Owner, Maufacturer, Bus, Motor, and Mission.

OBJECT G, 44316 is a satellite owned by CETG (CN) in LEO that was launched on Wed, 05 Jun 2019 UTC via a CHANG ZHENG 11 launch vehicle from the Yellow Sea Launch Area, China (YSLA). Unknown objects in Earth's orbit typically refer to objects detected orbiting the Earth but have not yet been identified or cataloged. These objects could be anything from previously untracked satellites, spent rocket stages, debris from satellite collisions, or even natural meteoroids temporarily captured by Earth's gravity.

Loading next visibility...
Identifier
44316, 2019-032G
Orbit
LEO
Country
Flag of CNCN / PRC
Related business
None
Manufacturer
DKJ?
Mission
Commercial Technology
Bus & Motor
TIANDI, Unknown motor
Mass
65 kg wet, 65 kg dry
Launch date (UTC)
2019-06-05 (6 years ago)
Launch vehicle
CHANG ZHENG 11
Launch site
Yellow Sea Launch Area, China (YSLA)
Object type
Unknown
Shape & HBR
Box, 0.5 m
Radar Cross Section
1.500 m², Medium (>0.1 m² and < 1m²)

Expand to show TLE details & history
Last TLE update: 6 hours ago

TLE from 6 hours ago
0 OBJECT G
1 44316U 19032G   25242.90939194  .00012686  00000-0  60769-3 0  9996
2 44316  44.9753 196.2484 0014058  37.8329 322.3536 15.18910662342817
Epoch: 2025-08-30T21:49Z
TLE epoch observation values (Epoch: 2025-08-30T21:49:31.463Z)
Latitude
-0.00002°
Longitude
-110.46964°
Altitude
501.467 km
Speed
7.62 km/s
True Right ascension
13h 04m 59s
True Declination
0° 00' 00"
Sunlit
Object was in daylight at epoch
Visualization orbit readout
Latitude
Unknown
Longitude
Unknown
Altitude
Unknown
Speed
Unknown
Apparent Right ascension
Unknown
Apparent Declination
Unknown
Sunlit
N/A
Visualization observer readout
Local Sidereal Time
18:58:16
Azimuth
Unknown
Elevation
Unknown
Doppler factor
Unknown
Orbital elements
Apogee altitude
520.423 km
Perigee altitude
501.055 km
Semi-major axis
6,888.876 km
Eccentricity
0.00141
Inclination
44.9753°
RAAN
196.2484°
Arg. of periapsis
37.8329°
True anomaly
322.25507°
Mean anomaly
322.3536°
Eccentric anomaly
322.30435°
Mean motion
3.79595 °/min
Orbital period
94.84 mins
BSTAR
0.00060769
Loading maneuver chart data...
Computing Atmospheric mass density...
Loading historical data...
Loading historical data...
Loading historical data...
Loading historical data...
Loading historical data...
Loading historical data...
Loading historical data...

Documentation

Showing up to 5 results
|